Year,Month,Day,Hour,Minute,Value (Times are PST for temperature in C)
2011,01,30,00,00,2.70
2011,01,30,00,01,2.70
2011,01,30,00,02,2.60
2011,01,30,00,03,2.60
2011,01,30,00,04,2.60
2011,01,30,00,05,2.60
2011,01,30,00,06,2.60
2011,01,30,00,07,2.60
2011,01,30,00,08,2.60
2011,01,30,00,09,2.60
2011,01,30,00,10,2.60
2011,01,30,00,11,2.60
2011,01,30,00,12,2.60
2011,01,30,00,13,2.60
2011,01,30,00,14,2.60
2011,01,30,00,15,2.50
2011,01,30,00,16,2.50
2011,01,30,00,17,2.50
2011,01,30,00,18,2.50
2011,01,30,00,19,2.50
2011,01,30,00,20,2.50
2011,01,30,00,21,2.50
2011,01,30,00,22,2.50
2011,01,30,00,23,2.50
2011,01,30,00,24,2.50
2011,01,30,00,25,2.50
2011,01,30,00,26,2.50
2011,01,30,00,27,2.50
2011,01,30,00,28,2.50
2011,01,30,00,29,2.50
2011,01,30,00,30,2.50
2011,01,30,00,31,2.50
2011,01,30,00,32,2.50
2011,01,30,00,33,2.50
2011,01,30,00,34,2.50
2011,01,30,00,35,2.50
2011,01,30,00,36,2.50
2011,01,30,00,37,2.40
2011,01,30,00,38,2.40
2011,01,30,00,39,2.40
2011,01,30,00,40,2.40
2011,01,30,00,41,2.40
2011,01,30,00,42,2.40
2011,01,30,00,43,2.40
2011,01,30,00,44,2.50
2011,01,30,00,45,2.50
2011,01,30,00,46,2.50
2011,01,30,00,47,2.50
2011,01,30,00,48,2.50
2011,01,30,00,49,2.50
2011,01,30,00,50,2.50
2011,01,30,00,51,2.50
2011,01,30,00,52,2.50
2011,01,30,00,53,2.60
2011,01,30,00,54,2.60
2011,01,30,00,55,2.60
2011,01,30,00,56,2.60
2011,01,30,00,57,2.60
2011,01,30,00,58,2.60
2011,01,30,00,59,2.60
2011,01,30,01,00,2.70
2011,01,30,01,01,2.70
2011,01,30,01,02,2.70
2011,01,30,01,03,2.70
2011,01,30,01,04,2.70
2011,01,30,01,05,2.70
2011,01,30,01,06,2.70
2011,01,30,01,07,2.70
2011,01,30,01,08,2.70
2011,01,30,01,09,2.70
2011,01,30,01,10,2.70
2011,01,30,01,11,2.70
2011,01,30,01,12,2.70
2011,01,30,01,13,2.70
2011,01,30,01,14,2.70
2011,01,30,01,15,2.70
2011,01,30,01,16,2.70
2011,01,30,01,17,2.70
2011,01,30,01,18,2.70
2011,01,30,01,19,2.70
2011,01,30,01,20,2.70
2011,01,30,01,21,2.70
2011,01,30,01,22,2.70
2011,01,30,01,23,2.70
2011,01,30,01,24,2.70
2011,01,30,01,25,2.70
2011,01,30,01,26,2.80
2011,01,30,01,27,2.80
2011,01,30,01,28,2.80
2011,01,30,01,29,2.80
2011,01,30,01,30,2.80
2011,01,30,01,31,2.70
2011,01,30,01,32,2.70
2011,01,30,01,33,2.70
2011,01,30,01,34,2.70
2011,01,30,01,35,2.70
2011,01,30,01,36,2.70
2011,01,30,01,37,2.70
2011,01,30,01,38,2.70
2011,01,30,01,39,2.70
2011,01,30,01,40,2.70
2011,01,30,01,41,2.70
2011,01,30,01,42,2.70
2011,01,30,01,43,2.70
2011,01,30,01,44,2.70
2011,01,30,01,45,2.70
2011,01,30,01,46,2.70
2011,01,30,01,47,2.70
2011,01,30,01,48,2.70
2011,01,30,01,49,2.70
2011,01,30,01,50,2.70
2011,01,30,01,51,2.70
2011,01,30,01,52,2.70
2011,01,30,01,53,2.70
2011,01,30,01,54,2.70
2011,01,30,01,55,2.70
2011,01,30,01,56,2.70
2011,01,30,01,57,2.70
2011,01,30,01,58,2.70
2011,01,30,01,59,2.70
2011,01,30,02,00,2.70
2011,01,30,02,01,2.70
2011,01,30,02,02,2.70
2011,01,30,02,03,2.70
2011,01,30,02,04,2.70
2011,01,30,02,05,2.70
2011,01,30,02,06,2.70
2011,01,30,02,07,2.70
2011,01,30,02,08,2.70
2011,01,30,02,09,2.70
2011,01,30,02,10,2.70
2011,01,30,02,11,2.70
2011,01,30,02,12,2.70
2011,01,30,02,13,2.70
2011,01,30,02,14,2.70
2011,01,30,02,15,2.70
2011,01,30,02,16,2.70
2011,01,30,02,17,2.60
2011,01,30,02,18,2.60
2011,01,30,02,19,2.60
2011,01,30,02,20,2.60
2011,01,30,02,21,2.60
2011,01,30,02,22,2.60
2011,01,30,02,23,2.60
2011,01,30,02,24,2.60
2011,01,30,02,25,2.60
2011,01,30,02,26,2.60
2011,01,30,02,27,2.60
2011,01,30,02,28,2.60
2011,01,30,02,29,2.60
2011,01,30,02,30,2.60
2011,01,30,02,31,2.60
2011,01,30,02,32,2.60
2011,01,30,02,33,2.60
2011,01,30,02,34,2.60
2011,01,30,02,35,2.60
2011,01,30,02,36,2.60
2011,01,30,02,37,2.60
2011,01,30,02,38,2.60
2011,01,30,02,39,2.60
2011,01,30,02,40,2.60
2011,01,30,02,41,2.60
2011,01,30,02,42,2.60
2011,01,30,02,43,2.60
2011,01,30,02,44,2.60
2011,01,30,02,45,2.60
2011,01,30,02,46,2.60
2011,01,30,02,47,2.60
2011,01,30,02,48,2.60
2011,01,30,02,49,2.60
2011,01,30,02,50,2.60
2011,01,30,02,51,2.60
2011,01,30,02,52,2.70
2011,01,30,02,53,2.70
2011,01,30,02,54,2.70
2011,01,30,02,55,2.70
2011,01,30,02,56,2.70
2011,01,30,02,57,2.70
2011,01,30,02,58,2.70
2011,01,30,02,59,2.70
2011,01,30,03,00,2.70
2011,01,30,03,01,2.70
2011,01,30,03,02,2.70
2011,01,30,03,03,2.70
2011,01,30,03,04,2.60
2011,01,30,03,05,2.60
2011,01,30,03,06,2.60
2011,01,30,03,07,2.60
2011,01,30,03,08,2.60
2011,01,30,03,09,2.60
2011,01,30,03,10,2.60
2011,01,30,03,11,2.60
2011,01,30,03,12,2.60
2011,01,30,03,13,2.50
2011,01,30,03,14,2.50
2011,01,30,03,15,2.50
2011,01,30,03,16,2.50
2011,01,30,03,17,2.50
2011,01,30,03,18,2.50
2011,01,30,03,19,2.50
2011,01,30,03,20,2.60
2011,01,30,03,21,2.60
2011,01,30,03,22,2.60
2011,01,30,03,23,2.60
2011,01,30,03,24,2.60
2011,01,30,03,25,2.60
2011,01,30,03,26,2.60
2011,01,30,03,27,2.60
2011,01,30,03,28,2.60
2011,01,30,03,29,2.60
2011,01,30,03,30,2.50
2011,01,30,03,31,2.50
2011,01,30,03,32,2.50
2011,01,30,03,33,2.50
2011,01,30,03,34,2.50
2011,01,30,03,35,2.50
2011,01,30,03,36,2.50
2011,01,30,03,37,2.50
2011,01,30,03,38,2.50
2011,01,30,03,39,2.60
2011,01,30,03,40,2.60
2011,01,30,03,41,2.60
2011,01,30,03,42,2.60
2011,01,30,03,43,2.60
2011,01,30,03,44,2.60
2011,01,30,03,45,2.60
2011,01,30,03,46,2.60
2011,01,30,03,47,2.60
2011,01,30,03,48,2.60
2011,01,30,03,49,2.60
2011,01,30,03,50,2.50
2011,01,30,03,51,2.50
2011,01,30,03,52,2.50
2011,01,30,03,53,2.50
2011,01,30,03,54,2.40
2011,01,30,03,55,2.40
2011,01,30,03,56,2.40
2011,01,30,03,57,2.30
2011,01,30,03,58,2.30
2011,01,30,03,59,2.30
2011,01,30,04,00,2.30
2011,01,30,04,01,2.30
2011,01,30,04,02,2.20
2011,01,30,04,03,2.20
2011,01,30,04,04,2.20
2011,01,30,04,05,2.20
2011,01,30,04,06,2.20
2011,01,30,04,07,2.20
2011,01,30,04,08,2.20
2011,01,30,04,09,2.10
2011,01,30,04,10,2.10
2011,01,30,04,11,2.00
2011,01,30,04,12,2.00
2011,01,30,04,13,2.00
2011,01,30,04,14,2.00
2011,01,30,04,15,2.00
2011,01,30,04,16,2.00
2011,01,30,04,17,2.00
2011,01,30,04,18,2.00
2011,01,30,04,19,1.90
2011,01,30,04,20,1.90
2011,01,30,04,21,1.90
2011,01,30,04,22,1.90
2011,01,30,04,23,1.80
2011,01,30,04,24,1.80
2011,01,30,04,25,1.80
2011,01,30,04,26,1.80
2011,01,30,04,27,1.80
2011,01,30,04,28,1.80
2011,01,30,04,29,1.80
2011,01,30,04,30,1.80
2011,01,30,04,31,1.80
2011,01,30,04,32,1.80
2011,01,30,04,33,1.80
2011,01,30,04,34,1.70
2011,01,30,04,35,1.70
2011,01,30,04,36,1.70
2011,01,30,04,37,1.60
2011,01,30,04,38,1.60
2011,01,30,04,39,1.60
2011,01,30,04,40,1.60
2011,01,30,04,41,1.60
2011,01,30,04,42,1.60
2011,01,30,04,43,1.70
2011,01,30,04,44,1.70
2011,01,30,04,45,1.70
2011,01,30,04,46,1.70
2011,01,30,04,47,1.70
2011,01,30,04,48,1.80
2011,01,30,04,49,1.70
2011,01,30,04,50,1.70
2011,01,30,04,51,1.70
2011,01,30,04,52,1.80
2011,01,30,04,53,1.80
2011,01,30,04,54,1.80
2011,01,30,04,55,1.80
2011,01,30,04,56,1.80
2011,01,30,04,57,1.80
2011,01,30,04,58,1.80
2011,01,30,04,59,1.80
2011,01,30,05,00,1.80
2011,01,30,05,01,1.80
2011,01,30,05,02,1.80
2011,01,30,05,03,1.80
2011,01,30,05,04,1.70
2011,01,30,05,05,1.70
2011,01,30,05,06,1.70
2011,01,30,05,07,1.70
2011,01,30,05,08,1.70
2011,01,30,05,09,1.70
2011,01,30,05,10,1.70
2011,01,30,05,11,1.70
2011,01,30,05,12,1.70
2011,01,30,05,13,1.70
2011,01,30,05,14,1.60
2011,01,30,05,15,1.60
2011,01,30,05,16,1.60
2011,01,30,05,17,1.60
2011,01,30,05,18,1.50
2011,01,30,05,19,1.50
2011,01,30,05,20,1.40
2011,01,30,05,21,1.40
2011,01,30,05,22,1.40
2011,01,30,05,23,1.40
2011,01,30,05,24,1.40
2011,01,30,05,25,1.40
2011,01,30,05,26,1.30
2011,01,30,05,27,1.30
2011,01,30,05,28,1.30
2011,01,30,05,29,1.30
2011,01,30,05,30,1.30
2011,01,30,05,31,1.40
2011,01,30,05,32,1.40
2011,01,30,05,33,1.40
2011,01,30,05,34,1.40
2011,01,30,05,35,1.30
2011,01,30,05,36,1.30
2011,01,30,05,37,1.30
2011,01,30,05,38,1.30
2011,01,30,05,39,1.30
2011,01,30,05,40,1.30
2011,01,30,05,41,1.30
2011,01,30,05,42,1.30
2011,01,30,05,43,1.30
2011,01,30,05,44,1.30
2011,01,30,05,45,1.30
2011,01,30,05,46,1.30
2011,01,30,05,47,1.30
2011,01,30,05,48,1.30
2011,01,30,05,49,1.30
2011,01,30,05,50,1.20
2011,01,30,05,51,1.20
2011,01,30,05,52,1.20
2011,01,30,05,53,1.20
2011,01,30,05,54,1.20
2011,01,30,05,55,1.20
2011,01,30,05,56,1.20
2011,01,30,05,57,1.20
2011,01,30,05,58,1.30
2011,01,30,05,59,1.30
2011,01,30,06,00,1.30
2011,01,30,06,01,1.30
2011,01,30,06,02,1.30
2011,01,30,06,03,1.30
2011,01,30,06,04,1.30
2011,01,30,06,05,1.30
2011,01,30,06,06,1.30
2011,01,30,06,07,1.20
2011,01,30,06,08,1.20
2011,01,30,06,09,1.20
2011,01,30,06,10,1.20
2011,01,30,06,11,1.10
2011,01,30,06,12,1.10
2011,01,30,06,13,1.10
2011,01,30,06,14,1.00
2011,01,30,06,15,1.00
2011,01,30,06,16,1.00
2011,01,30,06,17,1.00
2011,01,30,06,18,0.90
2011,01,30,06,19,0.90
2011,01,30,06,20,0.80
2011,01,30,06,21,0.80
2011,01,30,06,22,0.80
2011,01,30,06,23,0.80
2011,01,30,06,24,0.80
2011,01,30,06,25,0.80
2011,01,30,06,26,0.80
2011,01,30,06,27,0.80
2011,01,30,06,28,0.80
2011,01,30,06,29,0.80
2011,01,30,06,30,0.80
2011,01,30,06,31,0.80
2011,01,30,06,32,0.80
2011,01,30,06,33,0.80
2011,01,30,06,34,0.80
2011,01,30,06,35,0.70
2011,01,30,06,36,0.80
2011,01,30,06,37,0.80
2011,01,30,06,38,0.80
2011,01,30,06,39,0.80
2011,01,30,06,40,0.80
2011,01,30,06,41,0.80
2011,01,30,06,42,0.80
2011,01,30,06,43,0.80
2011,01,30,06,44,0.80
2011,01,30,06,45,0.80
2011,01,30,06,46,0.80
2011,01,30,06,47,0.80
2011,01,30,06,48,0.80
2011,01,30,06,49,0.80
2011,01,30,06,50,0.80
2011,01,30,06,51,0.80
2011,01,30,06,52,0.80
2011,01,30,06,53,0.80
2011,01,30,06,54,0.80
2011,01,30,06,55,0.80
2011,01,30,06,56,0.80
2011,01,30,06,57,0.80
2011,01,30,06,58,0.70
2011,01,30,06,59,0.70
2011,01,30,07,00,0.70
2011,01,30,07,01,0.70
2011,01,30,07,02,0.60
2011,01,30,07,03,0.60
2011,01,30,07,04,0.60
2011,01,30,07,05,0.60
2011,01,30,07,06,0.50
2011,01,30,07,07,0.50
2011,01,30,07,08,0.50
2011,01,30,07,09,0.50
2011,01,30,07,10,0.40
2011,01,30,07,11,0.40
2011,01,30,07,12,0.40
2011,01,30,07,13,0.40
2011,01,30,07,14,0.40
2011,01,30,07,15,0.40
2011,01,30,07,16,0.40
2011,01,30,07,17,0.40
2011,01,30,07,18,0.40
2011,01,30,07,19,0.40
2011,01,30,07,20,0.40
2011,01,30,07,21,0.40
2011,01,30,07,22,0.40
2011,01,30,07,23,0.40
2011,01,30,07,24,0.40
2011,01,30,07,25,0.40
2011,01,30,07,26,0.40
2011,01,30,07,27,0.40
2011,01,30,07,28,0.40
2011,01,30,07,29,0.40
2011,01,30,07,30,0.40
2011,01,30,07,31,0.40
2011,01,30,07,32,0.50
2011,01,30,07,33,0.50
2011,01,30,07,34,0.50
2011,01,30,07,35,0.50
2011,01,30,07,36,0.50
2011,01,30,07,37,0.50
2011,01,30,07,38,0.50
2011,01,30,07,39,0.50
2011,01,30,07,40,0.50
2011,01,30,07,41,0.50
2011,01,30,07,42,0.50
2011,01,30,07,43,0.50
2011,01,30,07,44,0.50
2011,01,30,07,45,0.40
2011,01,30,07,46,0.40
2011,01,30,07,47,0.40
2011,01,30,07,48,0.40
2011,01,30,07,49,0.40
2011,01,30,07,50,0.40
2011,01,30,07,51,0.40
2011,01,30,07,52,0.40
2011,01,30,07,53,0.40
2011,01,30,07,54,0.40
2011,01,30,07,55,0.40
2011,01,30,07,56,0.40
2011,01,30,07,57,0.40
2011,01,30,07,58,0.40
2011,01,30,07,59,0.40
2011,01,30,08,00,0.40
2011,01,30,08,01,0.40
2011,01,30,08,02,0.40
2011,01,30,08,03,0.40
2011,01,30,08,04,0.40
2011,01,30,08,05,0.40
2011,01,30,08,06,0.40
2011,01,30,08,07,0.40
2011,01,30,08,08,0.40
2011,01,30,08,09,0.40
2011,01,30,08,10,0.40
2011,01,30,08,11,0.40
2011,01,30,08,12,0.40
2011,01,30,08,13,0.40
2011,01,30,08,14,0.40
2011,01,30,08,15,0.40
2011,01,30,08,16,0.40
2011,01,30,08,17,0.40
2011,01,30,08,18,0.40
2011,01,30,08,19,0.40
2011,01,30,08,20,0.40
2011,01,30,08,21,0.40
2011,01,30,08,22,0.40
2011,01,30,08,23,0.40
2011,01,30,08,24,0.40
2011,01,30,08,25,0.40
2011,01,30,08,26,0.40
2011,01,30,08,27,0.40
2011,01,30,08,28,0.40
2011,01,30,08,29,0.40
2011,01,30,08,30,0.40
2011,01,30,08,31,0.40
2011,01,30,08,32,0.40
2011,01,30,08,33,0.50
2011,01,30,08,34,0.50
2011,01,30,08,35,0.50
2011,01,30,08,36,0.60
2011,01,30,08,37,0.60
2011,01,30,08,38,0.60
2011,01,30,08,39,0.60
2011,01,30,08,40,0.70
2011,01,30,08,41,0.70
2011,01,30,08,42,0.80
2011,01,30,08,43,0.80
2011,01,30,08,44,0.80
2011,01,30,08,45,0.90
2011,01,30,08,46,1.00
2011,01,30,08,47,1.10
2011,01,30,08,48,1.20
2011,01,30,08,49,1.30
2011,01,30,08,50,1.40
2011,01,30,08,51,1.40
2011,01,30,08,52,1.50
2011,01,30,08,53,1.60
2011,01,30,08,54,1.60
2011,01,30,08,55,1.60
2011,01,30,08,56,1.70
2011,01,30,08,57,1.70
2011,01,30,08,58,1.80
2011,01,30,08,59,1.80
2011,01,30,09,00,1.90
2011,01,30,09,01,2.00
2011,01,30,09,02,2.00
2011,01,30,09,03,2.00
2011,01,30,09,04,2.00
2011,01,30,09,05,2.00
2011,01,30,09,06,2.00
2011,01,30,09,07,2.00
2011,01,30,09,08,2.00
2011,01,30,09,09,2.00
2011,01,30,09,10,2.00
2011,01,30,09,11,2.00
2011,01,30,09,12,1.90
2011,01,30,09,13,1.90
2011,01,30,09,14,1.90
2011,01,30,09,15,2.00
2011,01,30,09,16,2.00
2011,01,30,09,17,2.10
2011,01,30,09,18,2.10
2011,01,30,09,19,2.20
2011,01,30,09,20,2.20
2011,01,30,09,21,2.20
2011,01,30,09,22,2.20
2011,01,30,09,23,2.20
2011,01,30,09,24,2.20
2011,01,30,09,25,2.20
2011,01,30,09,26,2.20
2011,01,30,09,27,2.20
2011,01,30,09,28,2.20
2011,01,30,09,29,2.20
2011,01,30,09,30,2.20
2011,01,30,09,31,2.20
2011,01,30,09,32,2.20
2011,01,30,09,33,2.30
2011,01,30,09,34,2.30
2011,01,30,09,35,2.30
2011,01,30,09,36,2.40
2011,01,30,09,37,2.40
2011,01,30,09,38,2.40
2011,01,30,09,39,2.40
2011,01,30,09,40,2.40
2011,01,30,09,41,2.40
2011,01,30,09,42,2.50
2011,01,30,09,43,2.50
2011,01,30,09,44,2.50
2011,01,30,09,45,2.50
2011,01,30,09,46,2.50
2011,01,30,09,47,2.50
2011,01,30,09,48,2.50
2011,01,30,09,49,2.50
2011,01,30,09,50,2.50
2011,01,30,09,51,2.50
2011,01,30,09,52,2.50
2011,01,30,09,53,2.60
2011,01,30,09,54,2.60
2011,01,30,09,55,2.60
2011,01,30,09,56,2.70
2011,01,30,09,57,2.70
2011,01,30,09,58,2.70
2011,01,30,09,59,2.70
2011,01,30,10,00,2.70
2011,01,30,10,01,2.70
2011,01,30,10,02,2.70
2011,01,30,10,03,2.60
2011,01,30,10,04,2.60
2011,01,30,10,05,2.70
2011,01,30,10,06,2.70
2011,01,30,10,07,2.70
2011,01,30,10,08,2.70
2011,01,30,10,09,2.80
2011,01,30,10,10,2.70
2011,01,30,10,11,2.70
2011,01,30,10,12,2.70
2011,01,30,10,13,2.70
2011,01,30,10,14,2.80
2011,01,30,10,15,2.80
2011,01,30,10,16,2.90
2011,01,30,10,17,2.90
2011,01,30,10,18,2.90
2011,01,30,10,19,3.00
2011,01,30,10,20,3.10
2011,01,30,10,21,3.10
2011,01,30,10,22,2.90
2011,01,30,10,23,2.90
2011,01,30,10,24,2.90
2011,01,30,10,25,2.90
2011,01,30,10,26,3.00
2011,01,30,10,27,3.10
2011,01,30,10,28,3.10
2011,01,30,10,29,3.10
2011,01,30,10,30,3.10
2011,01,30,10,31,3.10
2011,01,30,10,32,3.10
2011,01,30,10,33,3.10
2011,01,30,10,34,3.10
2011,01,30,10,35,3.10
2011,01,30,10,36,3.10
2011,01,30,10,37,3.10
2011,01,30,10,38,3.00
2011,01,30,10,39,2.90
2011,01,30,10,40,2.90
2011,01,30,10,41,3.10
2011,01,30,10,42,3.10
2011,01,30,10,43,3.10
2011,01,30,10,44,3.10
2011,01,30,10,45,3.00
2011,01,30,10,46,2.90
2011,01,30,10,47,2.90
2011,01,30,10,48,2.80
2011,01,30,10,49,2.70
2011,01,30,10,50,2.70
2011,01,30,10,51,2.70
2011,01,30,10,52,2.60
2011,01,30,10,53,2.60
2011,01,30,10,54,2.50
2011,01,30,10,55,2.50
2011,01,30,10,56,2.40
2011,01,30,10,57,2.30
2011,01,30,10,58,2.30
2011,01,30,10,59,2.30
2011,01,30,11,00,2.30
2011,01,30,11,01,2.30
2011,01,30,11,02,2.30
2011,01,30,11,03,2.40
2011,01,30,11,04,2.40
2011,01,30,11,05,2.40
2011,01,30,11,06,2.40
2011,01,30,11,07,2.40
2011,01,30,11,08,2.50
2011,01,30,11,09,2.50
2011,01,30,11,10,2.50
2011,01,30,11,11,2.50
2011,01,30,11,12,2.50
2011,01,30,11,13,2.50
2011,01,30,11,14,2.50
2011,01,30,11,15,2.50
2011,01,30,11,16,2.60
2011,01,30,11,17,2.60
2011,01,30,11,18,2.60
2011,01,30,11,19,2.60
2011,01,30,11,20,2.60
2011,01,30,11,21,2.60
2011,01,30,11,22,2.60
2011,01,30,11,23,2.70
2011,01,30,11,24,2.70
2011,01,30,11,25,2.70
2011,01,30,11,26,2.70
2011,01,30,11,27,2.70
2011,01,30,11,28,2.70
2011,01,30,11,29,2.70
2011,01,30,11,30,2.70
2011,01,30,11,31,2.70
2011,01,30,11,32,2.70
2011,01,30,11,33,2.70
2011,01,30,11,34,2.70
2011,01,30,11,35,2.70
2011,01,30,11,36,2.70
2011,01,30,11,37,2.70
2011,01,30,11,38,2.70
2011,01,30,11,39,2.70
2011,01,30,11,40,2.70
2011,01,30,11,41,2.70
2011,01,30,11,42,2.70
2011,01,30,11,43,2.80
2011,01,30,11,44,2.80
2011,01,30,11,45,2.80
2011,01,30,11,46,2.70
2011,01,30,11,47,2.70
2011,01,30,11,48,2.70
2011,01,30,11,49,2.70
2011,01,30,11,50,2.70
2011,01,30,11,51,2.70
2011,01,30,11,52,2.70
2011,01,30,11,53,2.80
2011,01,30,11,54,2.80
2011,01,30,11,55,2.80
2011,01,30,11,56,2.90
2011,01,30,11,57,2.90
2011,01,30,11,58,2.90
2011,01,30,11,59,2.90
2011,01,30,12,00,2.90
2011,01,30,12,01,2.90
2011,01,30,12,02,2.90
2011,01,30,12,03,2.90
2011,01,30,12,04,2.90
2011,01,30,12,05,2.90
2011,01,30,12,06,2.90
2011,01,30,12,07,2.90
2011,01,30,12,08,2.90
2011,01,30,12,09,2.90
2011,01,30,12,10,2.90
2011,01,30,12,11,2.90
2011,01,30,12,12,2.90
2011,01,30,12,13,3.00
2011,01,30,12,14,3.10
2011,01,30,12,15,3.10
2011,01,30,12,16,3.10
2011,01,30,12,17,3.10
2011,01,30,12,18,3.20
2011,01,30,12,19,3.20
2011,01,30,12,20,3.30
2011,01,30,12,21,3.30
2011,01,30,12,22,3.30
2011,01,30,12,23,3.30
2011,01,30,12,24,3.30
2011,01,30,12,25,3.30
2011,01,30,12,26,3.30
2011,01,30,12,27,3.30
2011,01,30,12,28,3.30
2011,01,30,12,29,3.30
2011,01,30,12,30,3.30
2011,01,30,12,31,3.30
2011,01,30,12,32,3.30
2011,01,30,12,33,3.30
2011,01,30,12,34,3.30
2011,01,30,12,35,3.30
2011,01,30,12,36,3.30
2011,01,30,12,37,3.30
2011,01,30,12,38,3.30
2011,01,30,12,39,3.30
2011,01,30,12,40,3.30
2011,01,30,12,41,3.30
2011,01,30,12,42,3.30
2011,01,30,12,43,3.30
2011,01,30,12,44,3.40
2011,01,30,12,45,3.40
2011,01,30,12,46,3.40
2011,01,30,12,47,3.40
2011,01,30,12,48,3.30
2011,01,30,12,49,3.30
2011,01,30,12,50,3.30
2011,01,30,12,51,3.40
2011,01,30,12,52,3.40
2011,01,30,12,53,3.40
2011,01,30,12,54,3.40
2011,01,30,12,55,3.30
2011,01,30,12,56,3.30
2011,01,30,12,57,3.30
2011,01,30,12,58,3.30
2011,01,30,12,59,3.30
2011,01,30,13,00,3.40
2011,01,30,13,01,3.40
2011,01,30,13,02,3.30
2011,01,30,13,03,3.30
2011,01,30,13,04,3.30
2011,01,30,13,05,3.30
2011,01,30,13,06,3.30
2011,01,30,13,07,3.30
2011,01,30,13,08,3.30
2011,01,30,13,09,3.30
2011,01,30,13,10,3.40
2011,01,30,13,11,3.40
2011,01,30,13,12,3.50
2011,01,30,13,13,3.50
2011,01,30,13,14,3.60
2011,01,30,13,15,3.60
2011,01,30,13,16,3.70
2011,01,30,13,17,3.70
2011,01,30,13,18,3.70
2011,01,30,13,19,3.70
2011,01,30,13,20,3.70
2011,01,30,13,21,3.70
2011,01,30,13,22,3.70
2011,01,30,13,23,3.60
2011,01,30,13,24,3.60
2011,01,30,13,25,3.60
2011,01,30,13,26,3.60
2011,01,30,13,27,3.60
2011,01,30,13,28,3.60
2011,01,30,13,29,3.60
2011,01,30,13,30,3.60
2011,01,30,13,31,3.70
2011,01,30,13,32,3.70
2011,01,30,13,33,3.80
2011,01,30,13,34,3.80
2011,01,30,13,35,3.80
2011,01,30,13,36,3.80
2011,01,30,13,37,3.80
2011,01,30,13,38,3.80
2011,01,30,13,39,3.80
2011,01,30,13,40,3.90
2011,01,30,13,41,3.90
2011,01,30,13,42,3.80
2011,01,30,13,43,3.80
2011,01,30,13,44,3.80
2011,01,30,13,45,3.80
2011,01,30,13,46,3.80
2011,01,30,13,47,3.80
2011,01,30,13,48,3.80
2011,01,30,13,49,3.80
2011,01,30,13,50,3.80
2011,01,30,13,51,3.80
2011,01,30,13,52,3.70
2011,01,30,13,53,3.70
2011,01,30,13,54,3.70
2011,01,30,13,55,3.70
2011,01,30,13,56,3.70
2011,01,30,13,57,3.80
2011,01,30,13,58,3.80
2011,01,30,13,59,3.80
2011,01,30,14,00,3.80
2011,01,30,14,01,3.80
2011,01,30,14,02,3.80
2011,01,30,14,03,3.80
2011,01,30,14,04,3.80
2011,01,30,14,05,3.80
2011,01,30,14,06,3.80
2011,01,30,14,07,3.80
2011,01,30,14,08,3.80
2011,01,30,14,09,3.80
2011,01,30,14,10,3.80
2011,01,30,14,11,3.80
2011,01,30,14,12,3.80
2011,01,30,14,13,3.80
2011,01,30,14,14,3.70
2011,01,30,14,15,3.70
2011,01,30,14,16,3.60
2011,01,30,14,17,3.60
2011,01,30,14,18,3.60
2011,01,30,14,19,3.60
2011,01,30,14,20,3.70
2011,01,30,14,21,3.70
2011,01,30,14,22,3.70
2011,01,30,14,23,3.70
2011,01,30,14,24,3.60
2011,01,30,14,25,3.60
2011,01,30,14,26,3.60
2011,01,30,14,27,3.60
2011,01,30,14,28,3.50
2011,01,30,14,29,3.50
2011,01,30,14,30,3.50
2011,01,30,14,31,3.50
2011,01,30,14,32,3.60
2011,01,30,14,33,3.60
2011,01,30,14,34,3.60
2011,01,30,14,35,3.70
2011,01,30,14,36,3.70
2011,01,30,14,37,3.70
2011,01,30,14,38,3.80
2011,01,30,14,39,3.80
2011,01,30,14,40,3.80
2011,01,30,14,41,3.80
2011,01,30,14,42,3.80
2011,01,30,14,43,3.80
2011,01,30,14,44,3.80
2011,01,30,14,45,3.80
2011,01,30,14,46,3.90
2011,01,30,14,47,3.90
2011,01,30,14,48,3.90
2011,01,30,14,49,3.90
2011,01,30,14,50,3.80
2011,01,30,14,51,3.80
2011,01,30,14,52,3.80
2011,01,30,14,53,3.80
2011,01,30,14,54,3.70
2011,01,30,14,55,3.70
2011,01,30,14,56,3.70
2011,01,30,14,57,3.70
2011,01,30,14,58,3.60
2011,01,30,14,59,3.60
2011,01,30,15,00,3.60
2011,01,30,15,01,3.60
2011,01,30,15,02,3.60
2011,01,30,15,03,3.50
2011,01,30,15,04,3.50
2011,01,30,15,05,3.50
2011,01,30,15,06,3.50
2011,01,30,15,07,3.50
2011,01,30,15,08,3.50
2011,01,30,15,09,3.50
2011,01,30,15,10,3.40
2011,01,30,15,11,3.40
2011,01,30,15,12,3.40
2011,01,30,15,13,3.40
2011,01,30,15,14,3.40
2011,01,30,15,15,3.40
2011,01,30,15,16,3.40
2011,01,30,15,17,3.40
2011,01,30,15,18,3.40
2011,01,30,15,19,3.40
2011,01,30,15,20,3.40
2011,01,30,15,21,3.50
2011,01,30,15,22,3.50
2011,01,30,15,23,3.50
2011,01,30,15,24,3.40
2011,01,30,15,25,3.40
2011,01,30,15,26,3.40
2011,01,30,15,27,3.40
2011,01,30,15,28,3.40
2011,01,30,15,29,3.40
2011,01,30,15,30,3.40
2011,01,30,15,31,3.40
2011,01,30,15,32,3.50
2011,01,30,15,33,3.50
2011,01,30,15,34,3.50
2011,01,30,15,35,3.60
2011,01,30,15,36,3.60
2011,01,30,15,37,3.70
2011,01,30,15,38,3.70
2011,01,30,15,39,3.80
2011,01,30,15,40,3.80
2011,01,30,15,41,3.80
2011,01,30,15,42,3.90
2011,01,30,15,43,3.90
2011,01,30,15,44,4.00
2011,01,30,15,45,4.00
2011,01,30,15,46,4.00
2011,01,30,15,47,4.00
2011,01,30,15,48,4.00
2011,01,30,15,49,4.00
2011,01,30,15,50,3.90
2011,01,30,15,51,3.90
2011,01,30,15,52,3.80
2011,01,30,15,53,3.80
2011,01,30,15,54,3.80
2011,01,30,15,55,3.80
2011,01,30,15,56,3.70
2011,01,30,15,57,3.70
2011,01,30,15,58,3.70
2011,01,30,15,59,3.60
2011,01,30,16,00,3.60
2011,01,30,16,01,3.60
2011,01,30,16,02,3.50
2011,01,30,16,03,3.50
2011,01,30,16,04,3.40
2011,01,30,16,05,3.40
2011,01,30,16,06,3.30
2011,01,30,16,07,3.30
2011,01,30,16,08,3.30
2011,01,30,16,09,3.30
2011,01,30,16,10,3.20
2011,01,30,16,11,3.20
2011,01,30,16,12,3.20
2011,01,30,16,13,3.10
2011,01,30,16,14,3.10
2011,01,30,16,15,3.10
2011,01,30,16,16,3.10
2011,01,30,16,17,3.10
2011,01,30,16,18,2.90
2011,01,30,16,19,2.90
2011,01,30,16,20,2.90
2011,01,30,16,21,2.90
2011,01,30,16,22,2.90
2011,01,30,16,23,2.90
2011,01,30,16,24,2.80
2011,01,30,16,25,2.80
2011,01,30,16,26,2.80
2011,01,30,16,27,2.70
2011,01,30,16,28,2.70
2011,01,30,16,29,2.70
2011,01,30,16,30,2.70
2011,01,30,16,31,2.70
2011,01,30,16,32,2.70
2011,01,30,16,33,2.70
2011,01,30,16,34,2.70
2011,01,30,16,35,2.70
2011,01,30,16,36,2.70
2011,01,30,16,37,2.70
2011,01,30,16,38,2.60
2011,01,30,16,39,2.60
2011,01,30,16,40,2.50
2011,01,30,16,41,2.50
2011,01,30,16,42,2.50
2011,01,30,16,43,2.50
2011,01,30,16,44,2.40
2011,01,30,16,45,2.40
2011,01,30,16,46,2.40
2011,01,30,16,47,2.40
2011,01,30,16,48,2.40
2011,01,30,16,49,2.40
2011,01,30,16,50,2.40
2011,01,30,16,51,2.30
2011,01,30,16,52,2.30
2011,01,30,16,53,2.30
2011,01,30,16,54,2.30
2011,01,30,16,55,2.30
2011,01,30,16,56,2.30
2011,01,30,16,57,2.30
2011,01,30,16,58,2.30
2011,01,30,16,59,2.30
2011,01,30,17,00,2.30
2011,01,30,17,01,2.30
2011,01,30,17,02,2.30
2011,01,30,17,03,2.20
2011,01,30,17,04,2.20
2011,01,30,17,05,2.20
2011,01,30,17,06,2.20
2011,01,30,17,07,2.20
2011,01,30,17,08,2.20
2011,01,30,17,09,2.10
2011,01,30,17,10,2.10
2011,01,30,17,11,2.10
2011,01,30,17,12,2.00
2011,01,30,17,13,2.00
2011,01,30,17,14,2.00
2011,01,30,17,15,1.90
2011,01,30,17,16,1.90
2011,01,30,17,17,1.90
2011,01,30,17,18,1.90
2011,01,30,17,19,1.90
2011,01,30,17,20,1.90
2011,01,30,17,21,1.90
2011,01,30,17,22,1.80
2011,01,30,17,23,1.80
2011,01,30,17,24,1.80
2011,01,30,17,25,1.80
2011,01,30,17,26,1.80
2011,01,30,17,27,1.80
2011,01,30,17,28,1.80
2011,01,30,17,29,1.80
2011,01,30,17,30,1.70
2011,01,30,17,31,1.70
2011,01,30,17,32,1.70
2011,01,30,17,33,1.60
2011,01,30,17,34,1.60
2011,01,30,17,35,1.60
2011,01,30,17,36,1.60
2011,01,30,17,37,1.70
2011,01,30,17,38,1.70
2011,01,30,17,39,1.70
2011,01,30,17,40,1.70
2011,01,30,17,41,1.70
2011,01,30,17,42,1.70
2011,01,30,17,43,1.70
2011,01,30,17,44,1.60
2011,01,30,17,45,1.60
2011,01,30,17,46,1.60
2011,01,30,17,47,1.60
2011,01,30,17,48,1.60
2011,01,30,17,49,1.60
2011,01,30,17,50,1.60
2011,01,30,17,51,1.60
2011,01,30,17,52,1.60
2011,01,30,17,53,1.60
2011,01,30,17,54,1.50
2011,01,30,17,55,1.50
2011,01,30,17,56,1.50
2011,01,30,17,57,1.50
2011,01,30,17,58,1.50
2011,01,30,17,59,1.60
2011,01,30,18,00,1.60
2011,01,30,18,01,1.50
2011,01,30,18,02,1.50
2011,01,30,18,03,1.50
2011,01,30,18,04,1.50
2011,01,30,18,05,1.50
2011,01,30,18,06,1.40